Baraboo, WI

6:54 AM CST on January 16, 2017 (GMT -0600)
Baraboo Wisconsin Dells

Weather History for KDLL - January, 2013

Change the Weather History Date:

Wednesday, January 9, 2013

  Actual Average Record
Temperature  
Mean Temperature 29 °F -  
Max Temperature 37 °F 23 °F 53 °F (2002)
Min Temperature 21 °F 2 °F -35 °F (1977)
Degree Days  
Heating Degree Days 36    
Moisture  
Dew Point 23 °F    
Average Humidity 72    
Maximum Humidity 87    
Minimum Humidity 52    
Precipitation  
Precipitation 0.00 in - - ()
Sea Level Pressure  
Sea Level Pressure 30.19 in    
Wind  
Wind Speed 11 mph (WSW)    
Max Wind Speed 21 mph    
Max Gust Speed 29 mph    
Visibility 10 miles    
Events      
Averages and records for this station are not official NWS values.
T = Trace of Precipitation, MM = Missing Value Source: NWS Daily Summary

Daily Weather History Graph

Daily Weather History Graph

Search for Another Location

Airport or City:

Trip Planner

Search our weather history database for the weather conditions in past years. The results will help you decide how hot, cold, wet, or windy it might be!

Date:

Astronomy

Jan. 09, 2013 Rise Set
Actual Time 7:31 AM CST 4:41 PM CST
Civil Twilight 6:59 AM CST 5:13 PM CST
Nautical Twilight 6:23 AM CST 5:49 PM CST
Astronomical Twilight 5:48 AM CST 6:24 PM CST
Moon 5:10 AM CST (1/9) 2:43 PM CST (1/9)
Length of Visible Light 10h 14m
Length of Day
9h 10m
Waning Crescent, 6% of the Moon is Illuminated
Jan 9
Waning Crescent
Jan 11
New
Jan 18
First Quarter
Jan 26
Full
Feb 3
Last Quarter

Hourly Weather History & Observations

Time (CST) Temp. Windchill Dew Point Humidity Pressure Visibility Wind Dir Wind Speed Gust Speed Precip Events Conditions
12:15 AM 35.6 °F 29.2 °F 30.2 °F 81% 29.87 in 10.0 mi West 8.1 mph 21.9 mph N/A   Mostly Cloudy
12:35 AM 35.6 °F 28.6 °F 30.2 °F 81% 29.88 in 10.0 mi WSW 9.2 mph 16.1 mph N/A   Scattered Clouds
12:55 AM 35.6 °F 26.6 °F 30.2 °F 81% 29.88 in 10.0 mi WSW 13.8 mph 18.4 mph N/A   Clear
1:55 AM 33.8 °F 24.8 °F 28.4 °F 81% 29.92 in 10.0 mi West 12.7 mph 17.3 mph N/A   Mostly Cloudy
2:15 AM 33.8 °F 23.2 °F 28.4 °F 81% 29.94 in 10.0 mi West 17.3 mph 24.2 mph N/A   Overcast
2:35 AM 32.0 °F 22.1 °F 28.4 °F 87% 29.95 in 10.0 mi West 13.8 mph 18.4 mph N/A   Overcast
2:55 AM 32.0 °F 22.1 °F 28.4 °F 87% 29.95 in 10.0 mi West 13.8 mph 18.4 mph N/A   Overcast
3:15 AM 32.0 °F 23.0 °F 28.4 °F 87% 29.96 in 10.0 mi West 11.5 mph 18.4 mph N/A   Mostly Cloudy
3:35 AM 32.0 °F 23.0 °F 28.4 °F 87% 29.96 in 10.0 mi WSW 11.5 mph - N/A   Scattered Clouds
3:55 AM 32.0 °F 23.6 °F 28.4 °F 87% 29.98 in 10.0 mi West 10.4 mph - N/A   Scattered Clouds
4:15 AM 32.0 °F 24.8 °F 26.6 °F 80% 29.99 in 10.0 mi West 8.1 mph - N/A   Scattered Clouds
4:55 AM 32.0 °F 24.2 °F 26.6 °F 80% 29.99 in 10.0 mi WSW 9.2 mph - N/A   Scattered Clouds
5:15 AM 30.2 °F 23.4 °F 26.6 °F 86% 30.00 in 10.0 mi WSW 6.9 mph - N/A   Scattered Clouds
5:35 AM 30.2 °F 22.6 °F 26.6 °F 86% 30.01 in 10.0 mi WSW 8.1 mph - N/A   Clear
5:55 AM 30.2 °F 21.9 °F 26.6 °F 86% 30.03 in 10.0 mi WSW 9.2 mph - N/A   Clear
6:15 AM 30.2 °F 21.9 °F 24.8 °F 80% 30.04 in 10.0 mi WSW 9.2 mph - N/A   Clear
6:35 AM 30.2 °F 21.3 °F 24.8 °F 80% 30.04 in 10.0 mi WSW 10.4 mph - N/A   Clear
6:55 AM 30.2 °F 20.8 °F 24.8 °F 80% 30.05 in 10.0 mi WSW 11.5 mph - N/A   Clear
7:15 AM 30.2 °F 21.9 °F 24.8 °F 80% 30.06 in 10.0 mi WSW 9.2 mph - N/A   Clear
7:35 AM 30.2 °F 22.6 °F 24.8 °F 80% 30.07 in 10.0 mi West 8.1 mph - N/A   Clear
7:55 AM 30.2 °F 23.4 °F 24.8 °F 80% 30.08 in 10.0 mi WSW 6.9 mph - N/A   Clear
8:15 AM 30.2 °F 20.8 °F 24.8 °F 80% 30.08 in 10.0 mi WSW 11.5 mph 17.3 mph N/A   Clear
8:35 AM 32.0 °F 21.6 °F 24.8 °F 75% 30.08 in 10.0 mi WSW 15.0 mph 20.7 mph N/A   Clear
9:15 AM 32.0 °F 21.2 °F 24.8 °F 75% 30.10 in 10.0 mi West 16.1 mph - N/A   Clear
9:35 AM 32.0 °F 20.8 °F 24.8 °F 75% 30.10 in 10.0 mi WSW 17.3 mph 23.0 mph N/A   Clear
9:55 AM 33.8 °F 23.5 °F 24.8 °F 70% 30.12 in 10.0 mi West 16.1 mph 23.0 mph N/A   Clear
10:15 AM 33.8 °F 23.2 °F 24.8 °F 70% 30.13 in 10.0 mi WSW 17.3 mph 26.5 mph N/A   Clear
10:35 AM 33.8 °F 23.2 °F 23.0 °F 65% 30.14 in 10.0 mi WSW 17.3 mph 24.2 mph N/A   Clear
10:55 AM 35.6 °F 27.5 °F 23.0 °F 60% 30.14 in 10.0 mi West 11.5 mph 17.3 mph N/A   Clear
11:15 AM 35.6 °F 25.9 °F 23.0 °F 60% 30.15 in 10.0 mi West 16.1 mph 25.3 mph N/A   Clear
11:35 AM 35.6 °F 27.5 °F 23.0 °F 60% 30.15 in 10.0 mi West 11.5 mph 25.3 mph N/A   Clear
11:55 AM 35.6 °F 26.2 °F 23.0 °F 60% 30.16 in 10.0 mi West 15.0 mph 23.0 mph N/A   Clear
12:15 PM 35.6 °F 27.5 °F 23.0 °F 60% 30.16 in 10.0 mi West 11.5 mph 21.9 mph N/A   Clear
12:35 PM 35.6 °F 25.2 °F 23.0 °F 60% 30.18 in 10.0 mi WSW 18.4 mph 25.3 mph N/A   Clear
12:55 PM 37.4 °F 26.9 °F 21.2 °F 52% 30.20 in 10.0 mi West 20.7 mph 28.8 mph N/A   Clear
1:15 PM 37.4 °F 27.5 °F 23.0 °F 56% 30.21 in 10.0 mi West 18.4 mph 24.2 mph N/A   Clear
1:35 PM 37.4 °F 28.2 °F 23.0 °F 56% 30.24 in 10.0 mi West 16.1 mph 26.5 mph N/A   Clear
1:55 PM 37.4 °F 27.8 °F 23.0 °F 56% 30.25 in 10.0 mi West 17.3 mph 24.2 mph N/A   Clear
2:15 PM 37.4 °F 28.2 °F 23.0 °F 56% 30.26 in 10.0 mi West 16.1 mph 23.0 mph N/A   Clear
2:35 PM 35.6 °F 25.9 °F 23.0 °F 60% 30.28 in 10.0 mi West 16.1 mph 24.2 mph N/A   Clear
2:55 PM 35.6 °F 24.8 °F 23.0 °F 60% 30.30 in 10.0 mi West 19.6 mph 25.3 mph N/A   Clear
3:15 PM 35.6 °F 26.6 °F 23.0 °F 60% 30.32 in 10.0 mi West 13.8 mph 24.2 mph N/A   Clear
3:35 PM 35.6 °F 26.2 °F 23.0 °F 60% 30.32 in 10.0 mi West 15.0 mph 26.5 mph N/A   Clear
3:55 PM 35.6 °F 28.0 °F 23.0 °F 60% 30.33 in 10.0 mi West 10.4 mph 17.3 mph N/A   Clear
4:15 PM 33.8 °F 23.9 °F 23.0 °F 65% 30.32 in 10.0 mi West 15.0 mph 23.0 mph N/A   Clear
4:35 PM 33.8 °F 25.3 °F 21.2 °F 60% 30.34 in 10.0 mi West 11.5 mph 18.4 mph N/A   Clear
4:55 PM 33.8 °F 25.3 °F 21.2 °F 60% 30.35 in 10.0 mi West 11.5 mph - N/A   Clear
5:15 PM 32.0 °F 24.8 °F 21.2 °F 64% 30.35 in 10.0 mi West 8.1 mph - N/A   Clear
5:35 PM 32.0 °F 25.6 °F 21.2 °F 64% 30.35 in 10.0 mi West 6.9 mph - N/A   Clear
5:55 PM 32.0 °F 25.6 °F 21.2 °F 64% 30.36 in 10.0 mi WNW 6.9 mph - N/A   Clear
6:15 PM 32.0 °F 27.5 °F 21.2 °F 64% 30.36 in 10.0 mi West 4.6 mph - N/A   Clear
6:35 PM 32.0 °F - 21.2 °F 64% 30.37 in 10.0 mi Calm Calm - N/A   Clear
6:55 PM 30.2 °F 26.7 °F 19.4 °F 64% 30.38 in 10.0 mi West 3.5 mph - N/A   Clear
7:15 PM 32.0 °F 28.7 °F 19.4 °F 60% 30.38 in 10.0 mi West 3.5 mph - N/A   Clear
7:35 PM 30.2 °F 25.4 °F 19.4 °F 64% 30.39 in 10.0 mi SW 4.6 mph - N/A   Clear
8:15 PM 30.2 °F - 19.4 °F 64% 30.40 in 10.0 mi Calm Calm - N/A   Clear
8:35 PM 28.4 °F 24.6 °F 19.4 °F 69% 30.41 in 10.0 mi SW 3.5 mph - N/A   Clear
8:55 PM 28.4 °F - 19.4 °F 69% 30.41 in 10.0 mi Calm Calm - N/A   Clear
9:15 PM 21.2 °F 12.6 °F 15.8 °F 80% 30.41 in 10.0 mi South 6.9 mph - N/A   Clear
9:35 PM 28.4 °F 24.6 °F 19.4 °F 69% 30.40 in 10.0 mi South 3.5 mph - N/A   Clear
9:55 PM 23.0 °F - 17.6 °F 80% 30.39 in 10.0 mi Calm Calm - N/A   Clear
10:15 PM 23.0 °F - 19.4 °F 86% 30.39 in 10.0 mi Calm Calm - N/A   Clear
10:35 PM 21.2 °F - 17.6 °F 86% 30.37 in 10.0 mi Calm Calm - N/A   Clear
10:55 PM 21.2 °F 14.9 °F 17.6 °F 86% 30.38 in 10.0 mi South 4.6 mph - N/A   Clear
11:35 PM 21.2 °F - 17.6 °F 86% 30.40 in 10.0 mi Calm Calm - N/A   Clear
11:55 PM 23.0 °F 18.4 °F 17.6 °F 80% 30.42 in 10.0 mi SW 3.5 mph - N/A   Clear